Time,TemperatureF,DewpointF,PressureIn,WindDirection,WindDirectionDegrees,WindSpeedMPH,WindSpeedGustMPH,Humidity,HourlyPrecipIn,Conditions,Clouds,dailyrainin,SoftwareType,DateUTC
2013-06-14 00:01:00,58.9,56.0,29.67,NE,55,1.0,1.0,90,0.00,,,0.00,Wunderground v.1.13,2013-06-14 04:01:00,
2013-06-14 00:31:00,58.6,56.0,29.68,NE,55,0.0,5.0,91,0.00,,,0.00,Wunderground v.1.13,2013-06-14 04:31:00,
2013-06-14 01:31:00,56.7,54.4,29.67,NE,55,0.0,5.0,92,0.00,,,0.00,Wunderground v.1.13,2013-06-14 05:31:00,
2013-06-14 02:01:00,56.3,54.3,29.66,NE,55,0.0,5.0,93,0.00,,,0.00,Wunderground v.1.13,2013-06-14 06:01:00,
2013-06-14 02:31:00,56.6,54.9,29.65,NE,55,0.0,5.0,94,0.00,,,0.00,Wunderground v.1.13,2013-06-14 06:31:00,
2013-06-14 03:01:00,56.2,54.5,29.65,NE,55,0.0,5.0,94,0.00,,,0.00,Wunderground v.1.13,2013-06-14 07:01:00,
2013-06-14 03:31:00,55.7,54.0,29.65,NE,55,0.0,5.0,94,0.00,,,0.00,Wunderground v.1.13,2013-06-14 07:31:00,
2013-06-14 04:01:00,54.8,53.4,29.65,NE,55,0.0,5.0,95,0.00,,,0.00,Wunderground v.1.13,2013-06-14 08:01:00,
2013-06-14 04:31:00,54.5,53.1,29.66,NE,55,0.0,5.0,95,0.00,,,0.00,Wunderground v.1.13,2013-06-14 08:31:00,
2013-06-14 05:01:00,53.8,52.4,29.67,NE,55,0.0,5.0,95,0.00,,,0.00,Wunderground v.1.13,2013-06-14 09:01:00,
2013-06-14 05:31:00,53.9,52.5,29.68,NE,55,0.0,5.0,95,0.00,,,0.00,Wunderground v.1.13,2013-06-14 09:31:00,
2013-06-14 06:01:00,53.5,52.1,29.69,NE,55,0.0,5.0,95,0.00,,,0.00,Wunderground v.1.13,2013-06-14 10:01:00,
2013-06-14 06:31:00,54.4,53.3,29.70,NE,55,0.0,5.0,96,0.00,,,0.00,Wunderground v.1.13,2013-06-14 10:31:00,
2013-06-14 07:01:00,57.6,55.9,29.70,NE,55,0.0,5.0,94,0.00,,,0.00,Wunderground v.1.13,2013-06-14 11:01:00,
2013-06-14 07:31:00,60.2,55.3,29.71,NNW,348,1.0,5.0,84,0.00,,,0.00,Wunderground v.1.13,2013-06-14 11:31:00,
2013-06-14 08:01:00,62.3,55.4,29.71,NNE,27,2.0,5.0,78,0.00,,,0.00,Wunderground v.1.13,2013-06-14 12:01:00,
2013-06-14 08:31:00,63.2,55.1,29.73,North,355,3.0,5.0,75,0.00,,,0.00,Wunderground v.1.13,2013-06-14 12:31:00,
2013-06-14 09:01:00,65.2,54.0,29.73,North,355,3.0,5.0,67,0.00,,,0.00,Wunderground v.1.13,2013-06-14 13:01:00,
2013-06-14 09:31:00,66.3,53.3,29.74,NNW,328,3.0,5.0,63,0.00,,,0.00,Wunderground v.1.13,2013-06-14 13:31:00,
2013-06-14 10:01:00,67.1,53.2,29.74,NNW,341,3.0,5.0,61,0.00,,,0.00,Wunderground v.1.13,2013-06-14 14:01:00,
2013-06-14 10:31:00,67.9,53.5,29.75,NE,39,3.0,3.0,60,0.00,,,0.00,Wunderground v.1.13,2013-06-14 14:31:00,
2013-06-14 11:01:00,69.1,53.2,29.75,NNE,30,3.0,3.0,57,0.00,,,0.00,Wunderground v.1.13,2013-06-14 15:01:00,
2013-06-14 11:31:00,70.4,54.4,29.75,NW,322,3.0,6.0,57,0.00,,,0.00,Wunderground v.1.13,2013-06-14 15:31:00,
2013-06-14 12:01:00,71.3,55.3,29.74,NNE,30,3.0,5.0,57,0.00,,,0.00,Wunderground v.1.13,2013-06-14 16:01:00,
2013-06-14 12:31:00,73.3,54.6,29.74,NW,323,2.0,2.0,52,0.00,,,0.00,Wunderground v.1.13,2013-06-14 16:31:00,
2013-06-14 13:01:00,73.0,56.4,29.74,WNW,300,3.0,5.0,56,0.00,,,0.00,Wunderground v.1.13,2013-06-14 17:01:00,
2013-06-14 13:31:00,73.0,56.4,29.74,NNW,336,4.0,5.0,56,0.00,,,0.00,Wunderground v.1.13,2013-06-14 17:31:00,
2013-06-14 14:01:00,74.4,56.2,29.74,WNW,303,4.0,4.0,53,0.00,,,0.00,Wunderground v.1.13,2013-06-14 18:01:00,
2013-06-14 14:31:00,75.4,55.5,29.74,NNW,327,3.0,6.0,50,0.00,,,0.00,Wunderground v.1.13,2013-06-14 18:31:00,
2013-06-14 15:01:00,76.5,54.8,29.74,WNW,299,2.0,5.0,47,0.00,,,0.00,Wunderground v.1.13,2013-06-14 19:01:00,
2013-06-14 15:31:00,75.8,51.1,29.74,NNW,344,5.0,9.0,42,0.00,,,0.00,Wunderground v.1.13,2013-06-14 19:31:00,
2013-06-14 16:01:00,75.8,49.8,29.74,NW,313,6.0,6.0,40,0.00,,,0.00,Wunderground v.1.13,2013-06-14 20:01:00,
2013-06-14 16:31:00,76.3,50.2,29.73,North,355,5.0,5.0,40,0.00,,,0.00,Wunderground v.1.13,2013-06-14 20:31:00,
2013-06-14 17:01:00,76.3,50.9,29.74,NNW,337,3.0,5.0,41,0.00,,,0.00,Wunderground v.1.13,2013-06-14 21:01:00,
2013-06-14 17:31:00,75.4,46.6,29.75,NNW,340,4.0,6.0,36,0.00,,,0.00,Wunderground v.1.13,2013-06-14 21:31:00,
2013-06-14 18:01:00,75.1,42.4,29.76,West,270,4.0,4.0,31,0.00,,,0.00,Wunderground v.1.13,2013-06-14 22:01:00,
2013-06-14 18:31:00,74.7,42.0,29.76,WNW,290,4.0,4.0,31,0.00,,,0.00,Wunderground v.1.13,2013-06-14 22:31:00,
2013-06-14 19:01:00,73.9,41.3,29.76,NNW,348,4.0,4.0,31,0.00,,,0.00,Wunderground v.1.13,2013-06-14 23:01:00,
2013-06-14 19:31:00,73.0,40.6,29.77,NNE,32,4.0,6.0,31,0.00,,,0.00,Wunderground v.1.13,2013-06-14 23:31:00,
2013-06-14 20:01:00,71.6,41.7,29.77,NNW,327,2.0,5.0,34,0.00,,,0.00,Wunderground v.1.13,2013-06-15 00:01:00,
2013-06-14 20:31:00,70.3,41.3,29.77,North,355,2.0,5.0,35,0.00,,,0.00,Wunderground v.1.13,2013-06-15 00:31:00,
2013-06-14 21:01:00,68.4,42.5,29.78,NW,325,1.0,1.0,39,0.00,,,0.00,Wunderground v.1.13,2013-06-15 01:01:00,
2013-06-14 21:31:00,65.6,46.5,29.79,NW,325,0.0,5.0,50,0.00,,,0.00,Wunderground v.1.13,2013-06-15 01:31:00,
2013-06-14 22:01:00,63.9,45.9,29.81,NW,325,0.0,5.0,52,0.00,,,0.00,Wunderground v.1.13,2013-06-15 02:01:00,
2013-06-14 22:31:00,61.3,46.8,29.81,NW,325,0.0,5.0,59,0.00,,,0.00,Wunderground v.1.13,2013-06-15 02:31:00,
2013-06-14 23:01:00,59.2,49.4,29.82,NW,325,0.0,5.0,70,0.00,,,0.00,Wunderground v.1.13,2013-06-15 03:01:00,
2013-06-14 23:31:00,57.8,49.6,29.82,NW,325,0.0,5.0,74,0.00,,,0.00,Wunderground v.1.13,2013-06-15 03:31:00,